TJS-4

Last updated on Thu Oct 30 2025 00:02:51 GMT+0000 (Coordinated Universal Time)

1 44637U 19070A 25302.48763111 -.00000161 00000+0 00000+0 0 9991 2 44637 0.0553 278.0459 0005419 28.3535 350.7984 1.00273525 22150
UTC large
Height (km)
Speed (km/s)
/
Latitude / Longitude
Inclination (degrees)
Orbital Period (minutes)
Azimuth
Elevation
Range (km)
Doppler Factor

Next 0 passes for location: London (51.5072 / 0.1276)

Sorry there are no passes over London.